Regional Weather Roundup
Issued by NWS

Home | Current Version | Previous Version | Graphics & Text | Print | Product List | Glossary On
Versions: 1 2 3 4 5 6 7 8 9 10 11 12 13 14 15 16 17 18 19 20 21 22 23 24 25 26 27 28 29 30 31 32 33 34 35 36 37 38 39 40 41 42 43 44 45 46 47 48 49 50
000
ASUS43 KMPX 252010
RWRMN
WEATHER ROUNDUP FOR MINNESOTA
NATIONAL WEATHER SERVICE TWIN CITIES/CHANHASSEN MN
300 PM CDT SAT MAR 25 2017


NOTE: "FAIR" INDICATES FEW OR NO CLOUDS BELOW 12,000 FEET WITH NO
SIGNIFICANT WEATHER AND/OR OBSTRUCTIONS TO VISIBILITY. N/A MEANS
CURRENT SKY AND/OR WEATHER CONDITIONS ARE NOT AVAILABLE.

MNZ060>063-068>070-252100-
   Twin Cities Metro

CITY           SKY/WX    TMP DP  RH WIND       PRES   REMARKS
TWIN CITIES    CLOUDY    42  32  67 NE15      30.10F
ST PAUL        CLOUDY    42  34  73 NE13      30.11F
CRYSTAL        CLOUDY    42  31  64 NE13      30.09F
BLAINE         CLOUDY    43  34  70 NE14G20   30.11F
LAKEVILLE      CLOUDY    39  34  81 NE15G21   30.08F
EDEN PRAIRIE   CLOUDY    43  33  68 NE10      30.07F
SOUTH ST PAUL  CLOUDY    42  32  69 E9G20     30.10F
LAKE ELMO      CLOUDY    41  34  75 NE13      30.11F
$$
MNZ001>005-007-008-013>017-022>024-027-028-252100-
   Northwest Minnesota

CITY           SKY/WX    TMP DP  RH WIND       PRES   REMARKS
BEMIDJI        SUNNY     42  30  63 SE14G20   30.12F
HALLOCK        CLOUDY    37  34  87 S17       30.09F
ROSEAU         MOSUNNY   43  34  70 S8        30.12F
WARROAD        MOSUNNY   45  32  61 S6        30.13F
THIEF RVR FALL PTSUNNY  N/A N/A N/A S6        30.12F
CROOKSTON      CLOUDY    41  34  75 S9        30.12F
FOSSTON        SUNNY     46  41  81 SE6       30.11F
DETROIT LAKES  SUNNY     45  32  61 SE14      30.09F
MOORHEAD       CLOUDY    37  34  87 SW9       30.12F
PARK RAPIDS    SUNNY     44  27  51 E8        30.09F
MAHNOMEN       FAIR      46  32  58 SW7       30.10F
$$
MNZ006-009>011-018-025>026-252100-
   North Central Minnesota

CITY           SKY/WX    TMP DP  RH WIND       PRES   REMARKS
BAUDETTE       MOSUNNY   44  29  55 SE8       30.12F
FLAG ISLAND    MOSUNNY   36  28  75 S8        30.14F
INTL FALLS     SUNNY     39  26  59 SE9       30.17F
WASKISH        PTSUNNY   45  30  57 E12G17    30.13F
BIG FORK       MOSUNNY   41  28  60 SE12      30.16F
LONGVILLE      SUNNY     43  28  56 SE7       30.13F
GRAND RAPIDS   CLOUDY    37  27  67 E12       30.17F
CRANE LAKE     SUNNY     37  25  60 SE3       30.22F
ORR            CLOUDY    37  23  56 SE5       30.16F
COOK           CLOUDY    37  27  65 E7        30.19F
WALKER         FAIR      39  29  66 E7        30.12F
$$
MNZ012-019>021-037-252100-
   Northeast Minnesota

CITY           SKY/WX    TMP DP  RH WIND       PRES   REMARKS
DULUTH         CLOUDY    33  29  85 E16G28    30.19F WCI  23
ELY            SUNNY     37  25  60 SE8       30.20F
HIBBING        CLOUDY    35  28  75 E14       30.17F WCI  26
EVELETH        CLOUDY    37  27  65 E10       30.20F
DULUTH HARBOR  CLOUDY    34  30  86 NE31      30.23F WCI  20
TWO HARBORS    CLOUDY    36  28  75 E18G30    30.21F
SILVER BAY     CLOUDY    32  28  86 E16G22    30.24F WCI  21
G MARAIS ARPRT SUNNY     32  16  51 E5        30.24F WCI  27
$$
MNZ029>031-032-039>041-046>048-054>057-064-252100-
   West Central Minnesota

CITY           SKY/WX    TMP DP  RH WIND       PRES   REMARKS
FERGUS FALLS   CLOUDY    39  30  70 SE7G16    30.14F
WHEATON        CLOUDY    37  30  75 SE9       30.12F
MORRIS         CLOUDY    39  34  81 E10       30.09F
ALEXANDRIA     CLOUDY    41  31  67 E13       30.10F
ELBOW LAKE     PTSUNNY   41  32  70 SE9       30.10F
WADENA         SUNNY     45  30  57 SE13      30.09F
GLENWOOD       CLOUDY    37  32  81 E15       30.10F
APPLETON       CLOUDY    39  34  81 E12       30.09F
BENSON         CLOUDY    41  30  65 E9        30.11F
MADISON        CLOUDY    43  37  81 E10       30.08F
WILLMAR        CLOUDY    39  36  87 E12       30.09F
$$
MNZ033>034-036-042>043-049>051-058-059-252100-
   Central Minnesota

CITY           SKY/WX    TMP DP  RH WIND       PRES   REMARKS
ST CLOUD       CLOUDY    40  33  76 E12       30.11F
SAUK CENTRE    CLOUDY    38  32  78 E10G16    30.11F
PAYNESVILLE      N/A     39  32  75 E10       30.09F
AITKIN         CLOUDY    45  27  49 E12       30.13F
PINE RIVER     SUNNY     43  30  61 E8G17     30.15F
BRAINERD       SUNNY     42  29  59 VRB7      30.13F
STAPLES        SUNNY     43  28  56 E7        30.11F
LONG PRAIRIE   CLOUDY    41  32  70 NE12      30.11F
LITTLE FALLS   CLOUDY    41  30  65 SE9       30.12F
LITCHFIELD     CLOUDY    41  34  75 E12G20    30.10F
BUFFALO        CLOUDY    41  32  72 NE9       30.11F
MAPLE LAKE     CLOUDY    42  35  75 E14       30.10F
HUTCHINSON     CLOUDY    42  36  80 NE15      30.08F
$$
MNZ037-044-045-052-053-252100-
   East Central Minnesota

CITY           SKY/WX    TMP DP  RH WIND       PRES   REMARKS
PRINCETON      CLOUDY    43  34  70 NE10G17   30.11F
MORA           MOSUNNY   45  32  61 E6        30.14F
CAMBRIDGE      CLOUDY    45  32  61 NE10      30.10F
RUSH CITY      CLOUDY    42  32  67 NE12      30.13F
MOOSE LAKE     CLOUDY    41  30  65 NE9       30.15F
CLOQUET        CLOUDY    36  28  75 E15G22    30.18F
MCGREGOR       CLOUDY    37  32  81 E15       30.16F
$$
MNZ071>073-080-081-089-090-097-098-252100-
   Southwest Minnesota

CITY           SKY/WX    TMP DP  RH WIND       PRES   REMARKS
MONTEVIDEO     CLOUDY    39  36  87 E13       30.10F
GRANITE FALLS  CLOUDY    42  36  78 NE9       30.09F
CANBY          CLOUDY    41  36  82 E5        30.08F
MARSHALL       CLOUDY    41  36  82 E14       30.06F
REDWOOD FALLS  CLOUDY    42  35  76 NE12      30.06F
OLIVIA         CLOUDY    41  34  75 NE10G17   30.07F
PIPESTONE      CLOUDY    41  36  81 E12G17    30.01F
WINDOM         CLOUDY    39  37  93 NE16      30.03F
WORTHINGTON    CLOUDY    38  36  92 NE16      30.01F FOG
JACKSON        CLOUDY    37  36  93 NE16      30.02F FOG
TRACY          CLOUDY    41  38  88 NE10      30.05F
SLAYTON        CLOUDY    37  36  98 NE13      30.03F FOG
$$
MNZ065>067-074>077-082>085-091>093-252100-
   South Central Minnesota

CITY           SKY/WX    TMP DP  RH WIND       PRES   REMARKS
MANKATO        CLOUDY    40  34  79 E12       30.06F
NEW ULM        CLOUDY    43  34  70 E9        30.05F
ST JAMES       CLOUDY    39  36  87 NE15      30.06F
FAIRMONT       CLOUDY    38  35  89 NE16G22   30.03F
GLENCOE        CLOUDY    42  37  80 NE9       30.07F
FARIBAULT      CLOUDY    39  36  87 NE13      30.07F
OWATONNA       CLOUDY    39  34  81 NE15      30.05F
WASECA         CLOUDY    39  34  81 NE18      30.05F
ALBERT LEA     CLOUDY    37  36  93 NE16G23   30.01F
$$
MNZ078>079-086>088-094>096-252100-
   Southeast Minnesota

CITY           SKY/WX    TMP DP  RH WIND       PRES   REMARKS
ROCHESTER      CLOUDY    38  35  89 NE18      30.03F
RED WING       CLOUDY    41  32  70 E14       30.08F
STANTON        CLOUDY    42  35  77 NE14      30.07F
DODGE CENTER   CLOUDY    37  36  93 NE18G24   30.03F
WINONA         CLOUDY    41  34  75 E6        30.07F
AUSTIN         CLOUDY    37  36  93 NE16      30.01F
PRESTON        CLOUDY    36  34  90 NE10G18   30.03F
$$
ABBREVIATIONS USED IN REMARKS
   TC - TEMPERATURES IN CELSIUS
  WCI - WIND CHILL INDEX
   HX - HEAT INDEX
  VSB - VISIBILITY
$$



USA.gov is the U.S. government's official web portal to all federal, state and local government web resources and services.